User: anonymous   Login
Location: Debolt
(55.2626°N, 118.0981°W)
Time: 03:30:57
(UTC+00:00)
Language:

JY1SAT - Orbit

View from above orbital plane
View from above orbital plane
View from above satellite
View from above satellite

Ground track
Ground track

The orbit data is extracted from the following two-line orbital elements,

1 43803U 18099AX  23340.12504130  .00007765  00000-0  57327-3 0  9995
2 43803  97.5492  38.4109 0010107 243.7785 116.2402 15.03485368273502
Epoch (UTC): 06 December 2023 03:00:03
Eccentricity: 0.0010107
inclination: 97.5492°
perigee height: 549 km
apogee height: 563 km
right ascension of ascending node: 38.4109°
argument of perigee: 243.7785°
revolutions per day: 15.03485368
mean anomaly at epoch: 116.2402°
orbit number at epoch: 27350

The dashed part of the orbit path shows where the satellite is in the earth's shadow,  

DLR